Weather History for Tallahassee, FL

Change the Weather History Date:

Friday, February 15, 2013

  Actual Average Record
Temperature  
Mean Temperature 49 °F 55 °F  
Max Temperature 68 °F 68 °F 82 °F (1989)
Min Temperature 30 °F 42 °F 23 °F (1905)
Degree Days  
Heating Degree Days 16    
Month to date heating degree days 127  
Since 1 July heating degree days 845  
Cooling Degree Days 0    
Month to date cooling degree days 8  
Year to date cooling degree days 42  
Moisture  
Dew Point 32 °F    
Average Humidity 57    
Maximum Humidity 92    
Minimum Humidity 22    
Precipitation  
Precipitation 0.00 in 0.16 in 3.16 in (1969)
Month to date precipitation 0.62 2.38  
Year to date precipitation 1.47 6.72  
Sea Level Pressure  
Sea Level Pressure 30.08 in    
Wind  
Wind Speed 3 mph (North)    
Max Wind Speed 13 mph    
Max Gust Speed -    
Visibility 7 miles    
Events Fog    
T = Trace of Precipitation, MM = Missing Value Source: NWS Daily Summary

Daily Weather History Graph

Daily Weather History Graph

Search for Another Location

Airport:

Trip Planner

Search our weather history database for the weather conditions in past years. The results will help you decide how hot, cold, wet, or windy it might be!

Date:

Astronomy

Feb. 15, 2013 Rise Set
Actual Time 7:17 AM EST 6:25 PM EST
Civil Twilight 6:52 AM EST 6:50 PM EST
Nautical Twilight 6:24 AM EST 7:18 PM EST
Astronomical Twilight 5:56 AM EST 7:46 PM EST
Moon 10:20 AM EST (2/15) 11:56 PM EST (2/15)
Length of Visible Light 11h 57m
Length of Day
11h 08m
Waxing Crescent, 30% of the Moon is Illuminated
Feb 15
Waxing Crescent
Feb 17
First Quarter
Feb 25
Full
Mar 4
Last Quarter
Mar 11
New

Hourly Weather History & Observations

Time (EST) Temp. Windchill Dew Point Humidity Pressure Visibility Wind Dir Wind Speed Gust Speed Precip Events Conditions
12:53 AM 34.0 °F - 30.9 °F 89% 30.08 in 9.0 mi Calm Calm - N/A   Clear
1:53 AM 33.1 °F - 30.0 °F 89% 30.08 in 10.0 mi Calm Calm - N/A   Partly Cloudy
2:18 AM 33.8 °F - 30.2 °F 87% 30.08 in 1.2 mi Calm Calm - N/A   Partly Cloudy
2:23 AM 33.8 °F - 30.2 °F 87% 30.08 in 0.2 mi Calm Calm - N/A Fog Fog
2:35 AM 32.0 °F - 30.2 °F 93% 30.08 in 1.0 mi Calm Calm - N/A   Mist
2:41 AM 32.0 °F - 30.2 °F 93% 30.08 in 3.0 mi Calm Calm - N/A   Overcast
2:53 AM 32.0 °F - 30.0 °F 92% 30.09 in 7.0 mi Calm Calm - N/A   Mostly Cloudy
3:03 AM 32.0 °F - 30.2 °F 93% 30.09 in 1.8 mi Calm Calm - N/A   Scattered Clouds
3:12 AM 32.0 °F - 28.4 °F 87% 30.09 in 2.0 mi Calm Calm - N/A   Mostly Cloudy
3:17 AM 32.0 °F - 28.4 °F 87% 30.09 in 1.0 mi Calm Calm - N/A   Mist
3:23 AM 32.0 °F - 30.2 °F 93% 30.09 in 0.2 mi Calm Calm - N/A Fog Fog
3:41 AM 32.0 °F - 30.2 °F 93% 30.09 in 1.0 mi Calm Calm - N/A   Mist
3:46 AM 32.0 °F - 28.4 °F 87% 30.09 in 3.0 mi Calm Calm - N/A   Overcast
3:53 AM 32.0 °F - 30.0 °F 92% 30.10 in 3.0 mi Calm Calm - N/A   Mostly Cloudy
3:56 AM 32.0 °F - 30.2 °F 93% 30.09 in 1.8 mi Calm Calm - N/A   Mostly Cloudy
4:04 AM 33.8 °F - 30.2 °F 87% 30.10 in 3.0 mi Calm Calm - N/A   Mostly Cloudy
4:15 AM 33.8 °F - 30.2 °F 87% 30.10 in 10.0 mi Calm Calm - N/A   Scattered Clouds
4:53 AM 32.0 °F - 28.9 °F 88% 30.10 in 10.0 mi Calm Calm - N/A   Clear
5:49 AM 30.2 °F - 28.4 °F 93% 30.10 in 9.0 mi Calm Calm - N/A Fog Patches of Fog
5:53 AM 30.9 °F - 28.0 °F 89% 30.10 in 10.0 mi Calm Calm - N/A Fog Patches of Fog
6:53 AM 30.9 °F - 27.0 °F 85% 30.11 in 10.0 mi Calm Calm - N/A Fog Patches of Fog
7:53 AM 32.0 °F - 28.9 °F 88% 30.13 in 10.0 mi Calm Calm - N/A   Clear
8:53 AM 43.0 °F 40.3 °F 37.9 °F 82% 30.14 in 6.0 mi NNW 4.6 mph - N/A   Haze
9:53 AM 50.0 °F - 39.9 °F 68% 30.14 in 10.0 mi North 8.1 mph - N/A   Clear
10:53 AM 57.0 °F - 39.0 °F 51% 30.14 in 10.0 mi North 6.9 mph - N/A   Clear
11:53 AM 61.0 °F - 35.1 °F 38% 30.12 in 10.0 mi North 9.2 mph - N/A   Clear
12:53 PM 63.0 °F - 33.1 °F 33% 30.09 in 10.0 mi NE 5.8 mph - N/A   Clear
1:53 PM 64.9 °F - 30.9 °F 28% 30.06 in 10.0 mi North 4.6 mph - N/A   Clear
2:53 PM 66.0 °F - 30.9 °F 27% 30.03 in 10.0 mi Variable 5.8 mph - N/A   Clear
3:53 PM 68.0 °F - 30.0 °F 24% 30.01 in 10.0 mi North 3.5 mph - N/A   Clear
4:53 PM 68.0 °F - 28.9 °F 23% 30.01 in 10.0 mi NNE 6.9 mph - N/A   Clear
5:53 PM 64.9 °F - 28.9 °F 26% 30.00 in 10.0 mi North 4.6 mph - N/A   Clear
6:53 PM 55.9 °F - 37.0 °F 49% 30.01 in 10.0 mi Calm Calm - N/A   Clear
7:53 PM 50.0 °F - 37.9 °F 63% 30.02 in 10.0 mi Calm Calm - N/A   Clear
8:53 PM 46.0 °F - 37.0 °F 71% 30.04 in 10.0 mi Calm Calm - N/A   Clear
9:53 PM 45.0 °F - 37.0 °F 74% 30.04 in 10.0 mi Calm Calm - N/A   Clear
10:53 PM 43.0 °F - 36.0 °F 76% 30.04 in 10.0 mi Calm Calm - N/A   Clear
11:53 PM 41.0 °F - 36.0 °F 82% 30.03 in 10.0 mi Calm Calm - N/A   Clear